Regional Weather Roundup
Issued by NWS Sioux Falls, SD

Home | Current Version | Previous Version | Text Only | Print | Product List | Glossary Off
Versions: 1 2 3 4 5 6 7 8 9 10 11 12 13 14 15 16 17 18 19 20 21 22 23 24 25 26 27 28 29 30 31 32 33 34 35 36 37 38 39 40 41 42 43 44 45 46 47 48 49 50

000
ASUS43 KFSD 210610
RWRFSD

WEATHER ROUNDUP FOR SE SOUTH DAKOTA/SW MINNESOTA/NW IOWA
NATIONAL WEATHER SERVICE SIOUX FALLS SD
1200 AM CST TUE FEB 21 2017

NOTE: "FAIR" INDICATES FEW OR NO CLOUDS BELOW 12,000 FEET WITH NO
SIGNIFICANT WEATHER AND OR OBSTRUCTIONS TO VISIBILITY.


SDZ038>040-050-052>070-210700-
SOUTHEAST SOUTH DAKOTA

CITY           SKY/WX    TMP DP  RH WIND       PRES   REMARKS
BROOKINGS      CLEAR     30  30 100 SE5       29.87F FOG     WCI  25
CHAMBERLAIN    CLEAR     36  31  82 SE3       29.85F
6HR MIN TEMP:  36; 6HR MAX TEMP:  55;

HURON          CLEAR     36  36 100 S8        29.85S
6HR MIN TEMP:  33; 6HR MAX TEMP:  50;

MADISON        FAIR      34  34 100 S7        29.88F FOG     WCI  28
MITCHELL       PTCLDY    36  33  89 S8        29.88F
6HR MIN TEMP:  34; 6HR MAX TEMP:  53;

SIOUX FALLS    CLEAR     32  32 100 CALM      29.90S
6HR MIN TEMP:  32; 6HR MAX TEMP:  50;

WINNER         FAIR      47  28  47 S18       29.85F
YANKTON        CLEAR     37  34  87 CALM      29.91S
$$

MNZ071-072-080-081-089-090-097-098-210700-
SOUTHWEST MINNESOTA

CITY           SKY/WX    TMP DP  RH WIND       PRES   REMARKS
FAIRMONT       CLEAR     42  39  89 W12       29.89R
JACKSON        CLEAR     37  36  93 W9        29.90R
LUVERNE        CLEAR     34  32  93 CALM      29.91S
MARSHALL       CLEAR     37  34  89 W8        29.88R
6HR MIN TEMP:  37; 6HR MAX TEMP:  48;

MONTEVIDEO     CLEAR     37  37 100 W5        29.87S
PIPESTONE      CLEAR     37  34  87 SW5       29.90R FOG
REDWOOD FALLS  CLEAR     39  36  89 W9        29.88R
TRACY          CLEAR     40  37  89 W8        29.88S
WINDOM         CLEAR     36  36 100 W7        29.90R
WORTHINGTON    CLEAR     39  36  89 SW9       29.91R
$$

IAZ001>003-012>014-020>022-031-032-NEZ013-014-SDZ071-210700-
NORTHWEST IOWA

CITY           SKY/WX    TMP DP  RH WIND       PRES   REMARKS
CHEROKEE       CLEAR     38  38 100 CALM      29.92S
DENISON        CLEAR     37  37 100 CALM      29.93R FOG
ESTHERVILLE    CLEAR     39  38  96 W10       29.89R
LE MARS        FOG       34  34 100 CALM      29.95R VSB 1/4
SHELDON        CLEAR     34  34 100 CALM      29.92R FOG
SIOUX CITY     CLEAR     40  37  89 CALM      29.93F
6HR MIN TEMP:  39; 6HR MAX TEMP:  55;

SPENCER        CLEAR     36  35  96 W10       29.91R
6HR MIN TEMP:  36; 6HR MAX TEMP:  49;

STORM LAKE     CLEAR     39  37  93 W8        29.93R
$$

ABBREVIATIONS USED IN REMARKS
   TC - TEMPERATURE IN CELSIUS
  WCI - WIND CHILL INDEX
   HX - HEAT INDEX
  VSB - VISIBILITY





USA.gov is the U.S. government's official web portal to all federal, state and local government web resources and services.